This is the latest recevied weather packets stored in our database for station/object KB0BS-13. If no packets are shown the sender has not sent any weather packets the latest 10 day(s).
| Time | Temp. | Humidity | Pressure | Rain* | Wind** | Luminosity | Snow |
|---|---|---|---|---|---|---|---|
| 1777934002 | 8.89° C | 90% | 996 hPa | 0 mm | - | 59 W/m² | - |
| 1777933698 | 8.89° C | 89% | 996 hPa | 0 mm | - | 35 W/m² | - |
| 1777933395 | 8.89° C | 88% | 996.2 hPa | 0 mm | - | 28 W/m² | - |
| 1777933094 | 8.89° C | 87% | 996.2 hPa | 0 mm | - | 28 W/m² | - |
| 1777932790 | 8.89° C | 87% | 996 hPa | 0 mm | - | 37 W/m² | - |
| 1777932487 | 9.44° C | 87% | 995.7 hPa | 1.27 mm | - | 45 W/m² | - |
| 1777932184 | 9.44° C | 87% | 995.5 hPa | 1.27 mm | - | 119 W/m² | - |
| 1777931881 | 10° C | 83% | 995.5 hPa | 0 mm | - | 41 W/m² | - |
| 1777931577 | 10.56° C | 80% | 996 hPa | 0 mm | - | 18 W/m² | - |
| 1777931273 | 10.56° C | 78% | 995.5 hPa | 0 mm | - | 22 W/m² | - |
| 1777930970 | 10.56° C | 78% | 995.3 hPa | 0 mm | - | 53 W/m² | - |
| 1777930667 | 11.11° C | 78% | 995.2 hPa | 0 mm | - | 73 W/m² | - |
| 1777930363 | 11.11° C | 78% | 995.1 hPa | 0 mm | - | 95 W/m² | - |
| 1777930060 | 11.11° C | 79% | 995.1 hPa | 0 mm | - | 90 W/m² | - |
| 1777929757 | 11.11° C | 79% | 995.2 hPa | 0 mm | - | 97 W/m² | - |
| 1777929455 | 10.56° C | 80% | 995 hPa | 0 mm | - | 125 W/m² | - |
| 1777929150 | 11.11° C | 79% | 995 hPa | 0 mm | - | 98 W/m² | - |
| 1777928848 | 11.11° C | 80% | 995 hPa | 0 mm | - | 104 W/m² | - |
| 1777928545 | 11.11° C | 80% | 995 hPa | 0 mm | - | 136 W/m² | - |
| 1777928242 | 10.56° C | 80% | 994.9 hPa | 0 mm | - | 92 W/m² | - |
| 1777927940 | 11.11° C | 80% | 995.1 hPa | 0 mm | - | 56 W/m² | - |
| 1777927638 | 11.11° C | 80% | 995.3 hPa | 0 mm | - | 65 W/m² | - |
| 1777927336 | 11.11° C | 77% | 995.1 hPa | 0 mm | - | 93 W/m² | - |
| 1777927035 | 11.67° C | 74% | 994.9 hPa | 0 mm | - | 45 W/m² | - |
| 1777926732 | 12.78° C | 69% | 994.8 hPa | 0 mm | - | 32 W/m² | - |
* Rain latest hour (hover to see other rain measurements)
** Current wind speed in m/s (hover to see current wind gust speed)